Flag Weather past 2 weeks in Playa del Carmen, Quintana Roo, Mexico

Now
70 °F

Overcast.


Feels Like: 70 °F
Forecast: 72 / 77 °F
Wind: 13 mph from North

Location: Cozumel Civ / Mil

Current Time: Nov 26, 2014 at 11:27:19 PM

Latest Report: Nov 26, 2014 at 10:43 PM


Visibility: 7 mi

Pressure: 30.16 "Hg

Humidity: 83%

Dew point: 64 °F

Location of Playa del CarmenLocation

Historic Weather in Playa del Carmen — Graph

°F

Playa del Carmen temperature yesterday

Maximum temperature yesterday: 82 °F (at 9:40 AM)
Minimum temperature yesterday: 70 °F (at 11:40 PM)
Average temperature yesterday: 77 °F

Past Weeks' High & Low Weather Summary

 TemperatureHumidityPressure
High82 °F (Nov 17, 10:40 AM)100% (Nov 11, 9:42 PM)30.21 "Hg (Nov 11, 9:42 PM)
Low59 °F (Nov 12, 4:42 AM)61% (Nov 12, 1:48 PM)29.80 "Hg (Nov 23, 5:41 PM)
Average73 °F91%30.00 "Hg
* Reported Nov 11 9:42 PM — Nov 26 9:41 PM, Playa del Carmen, Weather by CustomWeather, © 2014

Note: Actual official high and low records may vary slightly from our data, if they occured in-between our weather recording intervals... More about our weather records

Advertising

Playa del Carmen weather history for previous 24 hours

 ConditionsComfort  
Time TempWeatherWind HumidityBarometerVisibility
9:41 PM
Nov 26
70 °FOvercast.15 mph78%30.16 "Hg7 mi
8:47 PM72 °FOvercast.16 mph73%30.17 "Hg7 mi
7:49 PM72 °FOvercast.13 mph73%30.15 "Hg7 mi
6:49 PM70 °FMostly cloudy.13 mph78%30.13 "Hg7 mi
5:42 PM70 °FMostly cloudy.18 mph78%29.93 "Hg7 mi
4:41 PM72 °FBroken clouds.14 mph73%30.11 "Hg8 mi
3:52 PM72 °FBroken clouds.17 mph78%30.10 "Hg8 mi
2:41 PM73 °FCloudy.13 mph69%30.12 "Hg8 mi
1:44 PM73 °FCloudy.13 mph74%30.10 "Hg8 mi
12:51 PM73 °FCloudy.18 mph78%30.10 "Hg30 mi
11:51 AM73 °FCloudy.16 mph78%30.10 "Hg8 mi
10:50 AM72 °FMostly cloudy.16 mph83%30.13 "Hg8 mi
9:40 AM72 °FPartly sunny.17 mph83%30.14 "Hg8 mi
8:53 AM70 °FPartly sunny.16 mph88%30.15 "Hg8 mi
7:42 AM70 °FPartly sunny.14 mph88%30.11 "Hg8 mi
6:49 AM70 °FMore clouds than sun.17 mph88%30.08 "Hg7 mi
5:50 AM70 °FLow clouds.14 mph94%30.03 "Hg7 mi
4:42 AM70 °FPassing clouds.29 mph100%30.04 "Hg7 mi
3:44 AM70 °FPassing clouds.18 mph100%30.02 "Hg7 mi
3:03 AM70 °FPassing clouds.17 mph100%30.01 "Hg7 mi
1:49 AM70 °FLight rain. Passing clouds.No wind100%29.98 "Hg5 mi
12:53 AM70 °FPassing clouds.No wind100%29.99 "Hg7 mi
11:40 PM
Nov 25
70 °FPassing clouds.No wind100%29.96 "Hg7 mi
Weather by CustomWeather, © 2014

See weather overviewHow to use our weather pages